Time,TemperatureF,DewpointF,PressureIn,WindDirection,WindDirectionDegrees,WindSpeedMPH,WindSpeedGustMPH,Humidity,HourlyPrecipIn,Conditions,Clouds,dailyrainin,SoftwareType,DateUTC
2013-05-10 00:03:00,78.0,72.0,30.10,SSE,153,2.0,5.0,83,0.00,,,0.00,,2013-05-10 04:03:00,
2013-05-10 00:12:00,78.0,72.0,30.10,SSE,153,2.0,5.0,83,0.00,,,0.00,,2013-05-10 04:12:00,
2013-05-10 00:23:00,78.0,72.0,30.11,ESE,110,2.0,7.0,82,0.00,,,0.00,,2013-05-10 04:23:00,
2013-05-10 00:33:00,78.0,72.0,30.11,ESE,111,0.0,4.0,82,0.00,,,0.00,,2013-05-10 04:33:00,
2013-05-10 00:43:00,79.0,73.0,30.10,SE,126,0.0,5.0,81,0.00,,,0.00,,2013-05-10 04:43:00,
2013-05-10 00:53:00,79.0,73.0,30.10,SE,126,0.0,5.0,81,0.00,,,0.00,,2013-05-10 04:53:00,
2013-05-10 01:02:00,79.0,73.0,30.10,ESE,106,0.0,2.0,82,0.00,,,0.00,,2013-05-10 05:02:00,
2013-05-10 01:12:00,79.0,73.0,30.10,ESE,117,0.0,6.0,82,0.00,,,0.00,,2013-05-10 05:12:00,
2013-05-10 01:22:00,79.0,73.0,30.10,ESE,117,0.0,6.0,82,0.00,,,0.00,,2013-05-10 05:22:00,
2013-05-10 01:32:00,79.0,73.0,30.10,ESE,113,1.0,5.0,82,0.00,,,0.00,,2013-05-10 05:32:00,
2013-05-10 01:42:00,78.0,72.0,30.09,SE,126,0.0,3.0,82,0.00,,,0.00,,2013-05-10 05:42:00,
2013-05-10 01:52:00,78.0,72.0,30.09,SE,126,0.0,3.0,82,0.00,,,0.00,,2013-05-10 05:52:00,
2013-05-10 02:02:00,78.0,72.0,30.07,East,93,1.0,5.0,82,0.00,,,0.00,,2013-05-10 06:02:00,
2013-05-10 02:12:00,78.0,72.0,30.07,East,98,0.0,4.0,83,0.00,,,0.00,,2013-05-10 06:12:00,
2013-05-10 02:21:00,78.0,72.0,30.07,East,98,0.0,4.0,83,0.00,,,0.00,,2013-05-10 06:21:00,
2013-05-10 02:32:00,78.0,72.0,30.06,ESE,107,0.0,3.0,83,0.00,,,0.00,,2013-05-10 06:32:00,
2013-05-10 02:42:00,78.0,72.0,30.07,ESE,112,0.0,5.0,83,0.00,,,0.00,,2013-05-10 06:42:00,
2013-05-10 02:52:00,78.0,72.0,30.07,ESE,112,0.0,5.0,83,0.00,,,0.00,,2013-05-10 06:52:00,
2013-05-10 03:02:00,77.0,71.0,30.06,SSE,166,0.0,9.0,83,0.02,,,0.02,,2013-05-10 07:02:00,
2013-05-10 03:12:00,77.0,71.0,30.06,SSE,166,0.0,9.0,83,0.02,,,0.02,,2013-05-10 07:12:00,
2013-05-10 03:22:00,77.0,72.0,30.06,South,174,0.0,5.0,84,0.03,,,0.03,,2013-05-10 07:22:00,
2013-05-10 03:31:00,76.0,71.0,30.05,South,174,0.0,0.0,85,0.03,,,0.03,,2013-05-10 07:31:00,
2013-05-10 03:42:00,76.0,72.0,30.06,South,174,0.0,0.0,86,0.03,,,0.03,,2013-05-10 07:42:00,
2013-05-10 03:52:00,76.0,72.0,30.06,South,174,0.0,0.0,86,0.03,,,0.03,,2013-05-10 07:52:00,
2013-05-10 04:02:00,75.0,70.0,30.06,SSE,150,4.0,8.0,85,0.01,,,0.03,,2013-05-10 08:02:00,
2013-05-10 04:12:00,74.0,68.0,30.06,ESE,115,1.0,10.0,83,0.00,,,0.03,,2013-05-10 08:12:00,
2013-05-10 04:22:00,74.0,68.0,30.06,ESE,115,1.0,10.0,83,0.00,,,0.03,,2013-05-10 08:22:00,
2013-05-10 04:32:00,74.0,68.0,30.05,SE,136,1.0,7.0,82,0.00,,,0.03,,2013-05-10 08:32:00,
2013-05-10 04:42:00,74.0,68.0,30.05,SSE,165,0.0,4.0,81,0.00,,,0.03,,2013-05-10 08:42:00,
2013-05-10 04:52:00,74.0,68.0,30.05,SSE,165,0.0,4.0,81,0.00,,,0.03,,2013-05-10 08:52:00,
2013-05-10 05:01:00,74.0,68.0,30.05,SE,128,2.0,11.0,81,0.00,,,0.03,,2013-05-10 09:01:00,
2013-05-10 05:11:00,74.0,68.0,30.05,SE,128,2.0,11.0,81,0.00,,,0.03,,2013-05-10 09:11:00,
2013-05-10 05:21:00,74.0,68.0,30.05,SE,146,1.0,8.0,82,0.00,,,0.03,,2013-05-10 09:21:00,
2013-05-10 05:32:00,74.0,68.0,30.05,SE,141,1.0,5.0,83,0.00,,,0.03,,2013-05-10 09:32:00,
2013-05-10 05:43:00,74.0,68.0,30.05,SE,141,1.0,5.0,83,0.00,,,0.03,,2013-05-10 09:43:00,
2013-05-10 05:52:00,74.0,69.0,30.04,SSW,198,3.0,7.0,84,0.00,,,0.03,,2013-05-10 09:52:00,
2013-05-10 06:03:00,74.0,69.0,30.04,South,171,2.0,7.0,84,0.00,,,0.03,,2013-05-10 10:03:00,
2013-05-10 06:12:00,74.0,69.0,30.04,South,171,2.0,7.0,84,0.00,,,0.03,,2013-05-10 10:12:00,
2013-05-10 06:23:00,74.0,69.0,30.05,South,173,2.0,6.0,84,0.00,,,0.03,,2013-05-10 10:23:00,
2013-05-10 06:32:00,73.0,68.0,30.05,SE,145,0.0,5.0,83,0.00,,,0.03,,2013-05-10 10:32:00,
2013-05-10 06:42:00,73.0,68.0,30.05,SE,145,0.0,5.0,83,0.00,,,0.03,,2013-05-10 10:42:00,
2013-05-10 06:53:00,73.0,66.0,30.04,SE,146,1.0,5.0,80,0.00,,,0.03,,2013-05-10 10:53:00,
2013-05-10 07:02:00,74.0,67.0,30.05,SSE,161,0.0,4.0,78,0.00,,,0.03,,2013-05-10 11:02:00,
2013-05-10 07:12:00,74.0,67.0,30.05,SSE,161,0.0,1.0,78,0.00,,,0.03,,2013-05-10 11:12:00,
2013-05-10 07:22:00,74.0,67.0,30.05,SSE,161,0.0,1.0,78,0.00,,,0.03,,2013-05-10 11:22:00,
2013-05-10 07:32:00,75.0,68.0,30.06,SSE,161,0.0,3.0,80,0.00,,,0.03,,2013-05-10 11:32:00,
2013-05-10 07:42:00,75.0,68.0,30.06,SSE,161,0.0,0.0,80,0.00,,,0.03,,2013-05-10 11:42:00,
2013-05-10 07:52:00,75.0,68.0,30.06,SSE,161,0.0,0.0,80,0.00,,,0.03,,2013-05-10 11:52:00,
2013-05-10 08:01:00,76.0,70.0,30.06,ESE,109,0.0,3.0,81,0.00,,,0.03,,2013-05-10 12:01:00,
2013-05-10 08:12:00,76.0,70.0,30.06,ESE,109,0.0,3.0,81,0.00,,,0.03,,2013-05-10 12:12:00,
2013-05-10 08:22:00,77.0,71.0,30.06,ESE,119,0.0,4.0,83,0.00,,,0.03,,2013-05-10 12:22:00,
2013-05-10 08:32:00,77.0,71.0,30.06,SE,132,1.0,8.0,83,0.00,,,0.03,,2013-05-10 12:32:00,
2013-05-10 08:42:00,77.0,71.0,30.06,SE,132,1.0,8.0,83,0.00,,,0.03,,2013-05-10 12:42:00,
2013-05-10 08:52:00,77.0,71.0,30.06,SE,141,1.0,4.0,81,0.00,,,0.03,,2013-05-10 12:52:00,
2013-05-10 09:01:00,78.0,71.0,30.07,SE,132,0.0,8.0,79,0.00,,,0.03,,2013-05-10 13:01:00,
2013-05-10 09:11:00,78.0,71.0,30.07,SE,132,0.0,8.0,79,0.00,,,0.03,,2013-05-10 13:11:00,
2013-05-10 09:21:00,79.0,73.0,30.08,ESE,105,1.0,6.0,81,0.00,,,0.03,,2013-05-10 13:21:00,
2013-05-10 09:32:00,79.0,72.0,30.08,ESE,121,3.0,6.0,79,0.00,,,0.03,,2013-05-10 13:32:00,
2013-05-10 09:42:00,79.0,72.0,30.08,SE,128,3.0,10.0,80,0.00,,,0.03,,2013-05-10 13:42:00,
2013-05-10 09:52:00,79.0,72.0,30.08,SE,128,3.0,10.0,80,0.00,,,0.03,,2013-05-10 13:52:00,
2013-05-10 10:02:00,79.0,72.0,30.08,ESE,116,3.0,10.0,79,0.00,,,0.03,,2013-05-10 14:02:00,
2013-05-10 10:11:00,79.0,72.0,30.08,ESE,116,3.0,10.0,79,0.00,,,0.03,,2013-05-10 14:11:00,
2013-05-10 10:21:00,79.0,71.0,30.08,SE,130,3.0,7.0,77,0.00,,,0.03,,2013-05-10 14:21:00,
2013-05-10 10:32:00,80.0,72.0,30.08,ESE,121,3.0,8.0,77,0.00,,,0.03,,2013-05-10 14:32:00,
2013-05-10 10:42:00,80.0,72.0,30.08,ESE,121,3.0,8.0,77,0.00,,,0.03,,2013-05-10 14:42:00,
2013-05-10 10:52:00,80.0,72.0,30.08,ESE,121,3.0,8.0,77,0.00,,,0.03,,2013-05-10 14:52:00,
2013-05-10 11:02:00,80.0,71.0,30.08,SSE,163,3.0,9.0,75,0.00,,,0.03,,2013-05-10 15:02:00,
2013-05-10 11:20:00,-999.0,-99.9,30.09,SE,142,5.0,8.0,74,0.00,,,0.03,,2013-05-10 15:20:00,
2013-05-10 11:32:00,81.0,72.0,30.09,ESE,110,2.0,8.0,75,0.00,,,0.03,,2013-05-10 15:32:00,
2013-05-10 11:42:00,82.0,72.0,30.09,ESE,117,0.0,6.0,71,0.00,,,0.03,,2013-05-10 15:42:00,
2013-05-10 11:53:00,82.0,72.0,30.09,ESE,117,0.0,6.0,71,0.00,,,0.03,,2013-05-10 15:53:00,
2013-05-10 12:02:00,82.0,71.0,30.08,SE,138,2.0,6.0,69,0.00,,,0.03,,2013-05-10 16:02:00,
2013-05-10 12:12:00,83.0,72.0,30.08,ESE,113,3.0,8.0,69,0.00,,,0.03,,2013-05-10 16:12:00,
2013-05-10 12:23:00,83.0,72.0,30.08,ESE,113,3.0,8.0,69,0.00,,,0.03,,2013-05-10 16:23:00,
2013-05-10 12:32:00,83.0,73.0,30.07,ESE,121,0.0,6.0,71,0.00,,,0.03,,2013-05-10 16:32:00,
2013-05-10 12:42:00,83.0,72.0,30.07,SE,138,2.0,6.0,70,0.00,,,0.03,,2013-05-10 16:42:00,
2013-05-10 12:53:00,83.0,72.0,30.07,SE,138,2.0,6.0,70,0.00,,,0.03,,2013-05-10 16:53:00,
2013-05-10 13:02:00,83.0,73.0,30.06,ESE,115,1.0,8.0,71,0.00,,,0.03,,2013-05-10 17:02:00,
2013-05-10 13:12:00,83.0,73.0,30.06,ESE,115,1.0,8.0,71,0.00,,,0.03,,2013-05-10 17:12:00,
2013-05-10 13:22:00,82.0,71.0,30.06,SSE,157,6.0,9.0,69,0.00,,,0.03,,2013-05-10 17:22:00,
2013-05-10 13:32:00,83.0,72.0,30.05,ESE,115,4.0,10.0,70,0.00,,,0.03,,2013-05-10 17:32:00,
2013-05-10 13:42:00,83.0,72.0,30.06,SE,129,5.0,10.0,69,0.00,,,0.03,,2013-05-10 17:42:00,
2013-05-10 13:52:00,83.0,72.0,30.06,SE,129,5.0,10.0,69,0.00,,,0.03,,2013-05-10 17:52:00,
2013-05-10 14:10:00,-999.0,-99.9,30.06,SE,126,2.0,9.0,67,0.00,,,0.03,,2013-05-10 18:10:00,
2013-05-10 14:22:00,84.0,71.0,30.05,SE,139,3.0,12.0,66,0.00,,,0.03,,2013-05-10 18:22:00,
2013-05-10 14:34:00,83.0,72.0,30.06,ESE,112,4.0,12.0,69,0.00,,,0.03,,2013-05-10 18:34:00,
2013-05-10 14:43:00,83.0,71.0,30.06,ESE,122,5.0,10.0,67,0.00,,,0.03,,2013-05-10 18:43:00,
2013-05-10 14:54:00,83.0,71.0,30.06,ESE,122,5.0,10.0,67,0.00,,,0.03,,2013-05-10 18:54:00,
2013-05-10 15:02:00,83.0,72.0,30.05,SE,144,5.0,11.0,69,0.00,,,0.03,,2013-05-10 19:02:00,
2013-05-10 15:11:00,83.0,72.0,30.05,SE,144,5.0,11.0,69,0.00,,,0.03,,2013-05-10 19:11:00,
2013-05-10 15:21:00,83.0,72.0,30.04,SE,134,4.0,12.0,70,0.00,,,0.03,,2013-05-10 19:21:00,
2013-05-10 15:32:00,83.0,73.0,30.04,ESE,119,4.0,11.0,71,0.00,,,0.03,,2013-05-10 19:32:00,
2013-05-10 15:42:00,83.0,72.0,30.03,ESE,105,4.0,11.0,70,0.00,,,0.03,,2013-05-10 19:42:00,
2013-05-10 15:52:00,83.0,72.0,30.03,ESE,105,4.0,11.0,70,0.00,,,0.03,,2013-05-10 19:52:00,
2013-05-10 16:02:00,83.0,72.0,30.03,SSE,161,5.0,10.0,70,0.00,,,0.03,,2013-05-10 20:02:00,
2013-05-10 16:12:00,83.0,72.0,30.03,SSE,161,5.0,10.0,70,0.00,,,0.03,,2013-05-10 20:12:00,
2013-05-10 16:21:00,82.0,72.0,30.02,SE,138,3.0,11.0,73,0.00,,,0.03,,2013-05-10 20:21:00,
2013-05-10 16:32:00,82.0,72.0,30.01,SSE,155,5.0,11.0,73,0.00,,,0.03,,2013-05-10 20:32:00,
2013-05-10 16:42:00,82.0,72.0,30.01,SSE,155,5.0,11.0,73,0.00,,,0.03,,2013-05-10 20:42:00,
2013-05-10 16:52:00,82.0,73.0,30.01,ESE,103,4.0,9.0,75,0.00,,,0.03,,2013-05-10 20:52:00,
2013-05-10 17:02:00,82.0,74.0,30.01,SSE,158,3.0,10.0,76,0.00,,,0.03,,2013-05-10 21:02:00,
2013-05-10 17:11:00,81.0,74.0,30.01,SE,143,4.0,8.0,79,0.00,,,0.03,,2013-05-10 21:11:00,
2013-05-10 17:25:00,81.0,74.0,30.01,SE,143,4.0,8.0,79,0.00,,,0.03,,2013-05-10 21:25:00,
2013-05-10 17:32:00,81.0,74.0,30.02,South,178,3.0,9.0,79,0.00,,,0.03,,2013-05-10 21:32:00,
2013-05-10 17:43:00,81.0,74.0,30.02,South,174,6.0,10.0,80,0.00,,,0.03,,2013-05-10 21:43:00,
2013-05-10 17:53:00,81.0,74.0,30.02,South,174,6.0,10.0,80,0.00,,,0.03,,2013-05-10 21:53:00,
2013-05-10 18:02:00,80.0,74.0,30.01,SE,138,3.0,9.0,81,0.00,,,0.03,,2013-05-10 22:02:00,
2013-05-10 18:13:00,80.0,73.0,30.01,SSE,163,2.0,11.0,80,0.00,,,0.03,,2013-05-10 22:13:00,
2013-05-10 18:22:00,80.0,73.0,30.01,SSE,163,2.0,11.0,80,0.00,,,0.03,,2013-05-10 22:22:00,
2013-05-10 18:32:00,80.0,73.0,30.01,SE,137,2.0,8.0,79,0.00,,,0.03,,2013-05-10 22:32:00,
2013-05-10 18:42:00,80.0,73.0,30.02,SSE,160,3.0,9.0,79,0.00,,,0.03,,2013-05-10 22:42:00,
2013-05-10 18:52:00,80.0,73.0,30.02,SSE,160,3.0,9.0,79,0.00,,,0.03,,2013-05-10 22:52:00,
2013-05-10 19:02:00,80.0,73.0,30.02,South,174,3.0,8.0,80,0.00,,,0.03,,2013-05-10 23:02:00,
2013-05-10 19:12:00,80.0,73.0,30.02,South,174,3.0,8.0,80,0.00,,,0.03,,2013-05-10 23:12:00,
2013-05-10 19:22:00,80.0,74.0,30.03,SSE,161,4.0,9.0,81,0.00,,,0.03,,2013-05-10 23:22:00,
2013-05-10 19:33:00,80.0,74.0,30.03,SSE,161,3.0,8.0,82,0.00,,,0.03,,2013-05-10 23:33:00,
2013-05-10 19:42:00,80.0,74.0,30.02,SE,142,2.0,6.0,82,0.00,,,0.03,,2013-05-10 23:42:00,
2013-05-10 19:52:00,80.0,74.0,30.02,SE,142,2.0,6.0,82,0.00,,,0.03,,2013-05-10 23:52:00,
2013-05-10 20:02:00,80.0,74.0,30.03,South,172,3.0,11.0,82,0.00,,,0.03,,2013-05-11 00:02:00,
2013-05-10 20:11:00,80.0,74.0,30.03,South,180,2.0,7.0,83,0.00,,,0.03,,2013-05-11 00:11:00,
2013-05-10 20:21:00,80.0,74.0,30.03,South,180,2.0,7.0,83,0.00,,,0.03,,2013-05-11 00:21:00,
2013-05-10 20:32:00,79.0,73.0,30.03,SE,144,2.0,7.0,82,0.00,,,0.03,,2013-05-11 00:32:00,
2013-05-10 20:42:00,79.0,73.0,30.03,SSE,151,3.0,8.0,83,0.00,,,0.03,,2013-05-11 00:42:00,
2013-05-10 20:52:00,79.0,73.0,30.03,SSE,151,3.0,8.0,83,0.00,,,0.03,,2013-05-11 00:52:00,
2013-05-10 21:01:00,79.0,73.0,30.04,South,186,4.0,6.0,83,0.00,,,0.03,,2013-05-11 01:01:00,
2013-05-10 21:11:00,79.0,73.0,30.04,South,186,4.0,6.0,83,0.00,,,0.03,,2013-05-11 01:11:00,
2013-05-10 21:21:00,79.0,73.0,30.06,SSE,159,3.0,5.0,83,0.00,,,0.03,,2013-05-11 01:21:00,
2013-05-10 21:32:00,79.0,73.0,30.05,South,178,2.0,8.0,83,0.00,,,0.03,,2013-05-11 01:32:00,
2013-05-10 21:42:00,79.0,73.0,30.05,SSE,154,2.0,6.0,83,0.00,,,0.03,,2013-05-11 01:42:00,
2013-05-10 21:52:00,79.0,73.0,30.05,SSE,154,2.0,6.0,83,0.00,,,0.03,,2013-05-11 01:52:00,
2013-05-10 22:02:00,79.0,73.0,30.04,SE,129,0.0,3.0,83,0.00,,,0.03,,2013-05-11 02:02:00,
2013-05-10 22:11:00,79.0,73.0,30.04,SE,129,0.0,3.0,83,0.00,,,0.03,,2013-05-11 02:11:00,
2013-05-10 22:22:00,79.0,74.0,30.04,South,186,0.0,5.0,84,0.00,,,0.03,,2013-05-11 02:22:00,
2013-05-10 22:32:00,79.0,74.0,30.04,SE,138,2.0,7.0,84,0.00,,,0.03,,2013-05-11 02:32:00,
2013-05-10 22:42:00,79.0,74.0,30.04,East,88,2.0,7.0,84,0.00,,,0.03,,2013-05-11 02:42:00,
2013-05-10 22:52:00,79.0,74.0,30.04,East,88,2.0,7.0,84,0.00,,,0.03,,2013-05-11 02:52:00,
2013-05-10 23:01:00,78.0,73.0,30.04,SE,139,2.0,8.0,84,0.00,,,0.03,,2013-05-11 03:01:00,
2013-05-10 23:11:00,78.0,73.0,30.04,SE,139,2.0,8.0,84,0.00,,,0.03,,2013-05-11 03:11:00,
2013-05-10 23:21:00,79.0,74.0,30.04,SSE,166,3.0,6.0,84,0.00,,,0.03,,2013-05-11 03:21:00,
2013-05-10 23:33:00,78.0,73.0,30.05,SE,142,2.0,6.0,84,0.00,,,0.03,,2013-05-11 03:33:00,
2013-05-10 23:42:00,78.0,72.0,30.04,SSE,158,2.0,7.0,83,0.00,,,0.03,,2013-05-11 03:42:00,
2013-05-10 23:53:00,78.0,72.0,30.04,SSE,158,2.0,7.0,83,0.00,,,0.03,,2013-05-11 03:53:00,